Preview of NWS' New Version of Forecast
This preview is not operational and should not be used for support decisions.

Regional Weather Roundup (RWR)

Issued by National Weather Service (NWS)

                            
000
ASUS44 KJAN 210110
RWRMS 

MISSISSIPPI HOURLY WEATHER ROUNDUP
NATIONAL WEATHER SERVICE JACKSON MS
700 PM CST WED FEB 20 2019

NOTE: "FAIR: INDICATES FEW OR NO CLOUDS BELOW 12,000 FEET WITH NO
SIGNIFICANT WEATHER AND/OR OBSTRUCTIONS TO VISIBILITY.

MSZ001>002-007>008-010>013-018>021-025>028-034>036-210200-
NORTHWEST MISSISSIPPI
  
CITY           SKY/WX    TMP DP  RH WIND       PRES   REMARKS
BATESVILLE     FAIR      43  41  93 CALM      29.99R                  
CLARKSDALE       N/A     41  41 100 CALM      30.01R                  
CLEVELAND      FAIR      46  46 100 NW3       30.00R                  
GREENWOOD      FAIR      49  44  83 SW3       30.00R                  
GREENVILLE     FAIR      47  43  86 CALM      30.00R                  
OLIVE BRANCH   PTCLDY    43  43 100 CALM      29.99R                  
OXFORD         FAIR      43  41  93 CALM      30.00S                  
TUNICA           N/A     43  41  93 S5        30.01R                  
WINONA         CLOUDY    49  46  90 CALM      30.00R                  
$$

MSZ003>006-009-014>017-022>024-029>033-037>039-210200-
NORTHEAST MISSISSIPPI
  
CITY           SKY/WX    TMP DP  RH WIND       PRES   REMARKS
ABERDEEN       CLOUDY    50  52 100 NW9G15    30.00R                  
COLUMBUS AFB   CLOUDY    52  49  90 NW10      29.97R                  
CORINTH        CLOUDY    48  46  93 NW5       29.98S                  
GOLDN TRIANGLE CLOUDY    53  51  93 NW8       29.98R                  
STARKVILLE     MOCLDY    52  50  93 NW3       29.98S                  
TUPELO         CLOUDY    50  46  86 NW6       29.98S                  
$$

MSZ040-058-210200-
CENTRAL MISSISSIPPI
  
CITY           SKY/WX    TMP DP  RH WIND       PRES   REMARKS
JACKSON INTL   MOCLDY    52  48  86 N6        29.98R                  
JACKSON HAWKNS FAIR      52  48  86 N6        29.99R                  
MADISON        FAIR      50  50 100 CALM      29.98R                  
MERIDIAN KEY   CLOUDY    61  56  83 NW6       29.97R                  
MERIDIAN NAS   CLOUDY    61  58  90 NW10      29.97R                  
RAYMOND        FAIR      52  50  93 N5        29.99R                  
VICKSBURG VKS  MOCLDY    52  46  82 CALM      30.00R                  
$$

MSZ059>079-210200-
SOUTH MISSISSIPPI
  
CITY           SKY/WX    TMP DP  RH WIND       PRES   REMARKS
HATTIESBURG    CLOUDY    62  59  90 CALM      29.97R                  
LAUREL         CLOUDY    60  58  92 CALM      29.96R                  
MCCOMB         CLOUDY    56  49  77 N6        29.95S                  
NATCHEZ        CLOUDY    52  47  83 CALM      29.99R                  
PINE BELT      CLOUDY    60  58  92 N5        29.97R                  
$$

MSZ080>082-210200-
COASTAL MISSISSIPPI
  
CITY           SKY/WX    TMP DP  RH WIND       PRES   REMARKS
BILOXI         FOG       66  66 100 W5        29.94R VSB 1            
PASCAGOULA     FOG       71  69  93 SW8       29.95R VSB 3/4          
GULFPORT       LGT RAIN  68  68 100 CALM      29.94R FOG              
$$

LAZ007>009-015>016-023>026-210200-
NORTHEAST LOUISIANA
  
CITY           SKY/WX    TMP DP  RH WIND       PRES   REMARKS
BASTROP        FAIR      44  44  99 CALM      30.00R                  
TALLULAH/VBURG MOCLDY    52  45  77 CALM      30.00R                  
VIDALIA        CLOUDY    53  47  79 N3        29.98R                  
$$